User: anonymous   Login
Location: Unspecified
(0.0000°N, 0.0000°E)
Time: 07:57:46
(UTC+00:00)
Language:

Galileo 6 - Orbit

View from above orbital plane
View from above orbital plane
View from above satellite
View from above satellite

Ground track
Ground track

The orbit data is extracted from the following two-line orbital elements,

1 40129U 14050B   17142.99467241 -.00000083 +00000-0 +00000-0 0  9995
2 40129 050.3475 045.2194 1623779 063.6512 312.0927 01.85518834019002
Epoch (UTC): 22 May 2017 23:52:19
Eccentricity: 0.1623779
inclination: 50.3475°
perigee height: 17056 km
apogee height: 26142 km
right ascension of ascending node: 45.2194°
argument of perigee: 63.6512°
revolutions per day: 1.85518834
mean anomaly at epoch: 312.0927°
orbit number at epoch: 1900

The dashed part of the orbit path shows where the satellite is in the earth's shadow,  

DLR